Regional Weather Roundup
Issued by NWS

Home | Current Version | Previous Version | Text Only | Print | Product List | Glossary On
Versions: 1 2 3 4 5 6 7 8 9 10 11 12 13 14 15 16 17 18 19 20 21 22 23 24 25 26 27 28 29 30 31 32 33 34 35 36 37 38 39 40 41 42 43 44 45 46 47 48 49 50
000
ASUS46 KLOX 230911
RWRCA

SOUTHERN CALIFORNIA WEATHER ROUNDUP
NATIONAL WEATHER SERVICE OXNARD CALIFORNIA
200 AM PDT SAT MAY 23 2015

NOTE: "FAIR" INDICATES FEW OR NO CLOUDS BELOW 12,000 FEET WITH NO
SIGNIFICANT WEATHER AND/OR OBSTRUCTIONS TO VISIBILITY.

  -  STATIONS PRECEEDED BY AN ASTERISK (*) ARE NOT NWS OR FAA
     STATIONS AND ARE NOT SUBJECT TO NWS AND FAA QUALITY CONTROL.

CAZ041-042-087-231000-
LA AND ORANGE COUNTY COASTAL AREAS


CITY           SKY/WX    TMP DP  RH WIND       PRES   REMARKS
L.A. DOWNTOWN  PTCLDY    60  51  72 CALM      30.05S
L.A. AIRPORT   PTCLDY    58  54  86 W10       30.06S
LONG BEACH     MOCLDY    61  52  72 W5        30.06S

CITY           SKY/WX    TMP DP  RH WIND       PRES   REMARKS
AVALON           N/A     55 N/A N/A MISG        N/A
FULLERTON      MOCLDY    61  53  75 CALM      30.05S
HAWTHORNE      CLEAR     61  53  75 SW5       30.06S
*LOS ALAMITOS  CLOUDY    59  56  87 S5        30.06S
*REDONDO BEACH   N/A     59  52  79 CALM      30.06F
SANTA ANA      MOCLDY    61  54  77 CALM      30.06S
STA MONICA APT CLEAR     59  51  75 W3        30.06S
*STA MON PIER    N/A     59  54  84 NW5       30.05S
*UCLA            N/A     55  50  82 CALM      30.03S

$$

CAZ547-548-048-231000-
LA COUNTY VALLEYS AND INLAND EMPIRE


CITY           SKY/WX    TMP DP  RH WIND       PRES   REMARKS
BURBANK        PTCLDY    60  50  69 SE3       30.04F
VAN NUYS       PTCLDY    57  50  77 W3        30.04F

CITY           SKY/WX    TMP DP  RH WIND       PRES   REMARKS
CORONA AIRPORT PTSUNNY   52  48  86 CALM      30.07S
*CHATSWORTH      N/A     56  49  80 CALM      30.06S
CHINO          CLOUDY    58  51  78 W5        30.07S
MARCH AFB      MOCLDY    55  51  86 N1        30.06S
*NORTHRIDGE      N/A     55  48  76 CALM        N/A
ONTARIO        CLOUDY    57  50  77 SW5       30.06R
*PASADENA        N/A     59  54  82 VRB1        N/A
RIVERSIDE      CLOUDY    58  52  80 CALM      30.06S
SAN BERNARDINO NOT AVBL
*WHITEMAN AP   NOT AVBL
*WOODLAND HILL   N/A     52  48  87 SE1         N/A

$$

CAZ054-055-231000-
LA AND SAN BERNARDINO COUNTY MOUNTAINS


CITY           SKY/WX    TMP DP  RH WIND       PRES   REMARKS
*BIG BEAR AIRP CLOUDY    37  32  81 SW3       30.09S
SANDBERG       CLOUDY    49  44  83 NW13G20   30.07F

$$

CAZ028-029-059-060-099-231000-
ANTELOPE VALLEY AND SURROUNDING AREAS


CITY           SKY/WX    TMP DP  RH WIND       PRES   REMARKS
LANCASTER      CLEAR     53  45  74 SW12      30.01S
PALMDALE       CLEAR     53  44  71 SW18      30.02R

CITY           SKY/WX    TMP DP  RH WIND       PRES   REMARKS
29 PALMS       CLEAR     60  40  47 N5        30.03S
BARSTOW/DAGGET MOCLDY    58  42  55 W13       29.98R
BISHOP         CLOUDY    56  40  55 NW5       29.98S
CHINA LAKE     CLEAR     56  37  49 S7        29.93S
EDWARDS AFB    CLEAR     54  45  71 SW13      29.97S
MOJAVE         FAIR      55  41  58 W24G33    29.97S
NEEDLES        PTCLDY    64  47  53 W6        29.90F
VICTORVILLE    CLEAR     48  45  87 S10       30.02S

$$

CAZ039-040-231000-
VENTURA AND SANTA BARBARA COUNTY COAST


CITY           SKY/WX    TMP DP  RH WIND       PRES   REMARKS
CAMARILLO      CLEAR     59  51  75 SE5       30.04F
OXNARD AIRPORT CLEAR     59  52  77 E8        30.04F
*POINT MUGU    CLEAR     58  52  80 CALM      30.05F
SBA APT/GOLETA CLEAR     53  48  83 CALM      30.04S
*SANTA BARBARA   N/A     58  50  74 CALM      30.12S
*VENTURA         N/A     58  53  81 CALM      29.65S

$$

CAZ044-045-231000-
VENTURA COUNTY VALLEYS


CITY           SKY/WX    TMP DP  RH WIND       PRES   REMARKS
*SIMI VALLEY     N/A     53  50  88 CALM      30.02S
*OJAI            N/A     50  47  90 CALM      30.00F
*FILLMORE        N/A     58  53  82 CALM      29.95S

$$

CAZ053-231000-
VENTURA COUNTY MOUNTAINS


CITY           SKY/WX    TMP DP  RH WIND       PRES   REMARKS

$$

CAZ034-035-036-231000-
CENTRAL COAST AND SANTA YNEZ VALLEY


CITY           SKY/WX    TMP DP  RH WIND       PRES   REMARKS
SAN LUIS OBISP CLOUDY    57  50  77 NW6       30.09F
SANTA MARIA    CLOUDY    57  53  86 NW9       30.09F

CITY           SKY/WX    TMP DP  RH WIND       PRES   REMARKS
*CAL POLY SLO    N/A     57  54  88 SW2         N/A
*PISMO BEACH     N/A     57  54  90 W3        30.10S
*SANTA YNEZ    CLOUDY    54  48  82 NW8       30.08F

$$

CAZ037-038-051-231000-
SAN LUIS OBISPO COUNTY INTERIOR AND CUYAMA VALLEY


CITY           SKY/WX    TMP DP  RH WIND       PRES   REMARKS
*CUYAMA          N/A     48  45  88 W6        30.04F
PASO ROBLES    CLEAR     54  48  80 W10       30.07F

$$

CAZ032-033-061-231000-
SOUTHERN DESERTS


CITY           SKY/WX    TMP DP  RH WIND       PRES   REMARKS
BLYTHE         CLEAR     62  48  60 S9        29.91S
IMPERIAL       CLEAR     62  44  51 W12       29.94S
PALM SPRINGS   CLEAR     64  45  49 CALM      29.95S
THERMAL        CLEAR     66  48  52 NW16      29.91S

$$

ELSEWHERE ACROSS THE WESTERN UNITED STATES AND MEXICO


CITY           SKY/WX    TMP DP  RH WIND       PRES   REMARKS
DENVER, CO     MOCLDY    47  44  90 S3        30.05S
GRAND CANYON,  MOCLDY    31  30  96 CALM      30.04S
HONOLULU, HI   MOCLDY    73  66  78 N7        30.04S
KAHULUI, MAUI  RAIN      73  70  88 NE13      30.03F FOG
LAKE TAHOE, CA MOCLDY    45  41  86 S3        30.08F
LAS VEGAS, NV  PTCLDY    62  41  46 SW8       29.87S
MAMMOTH LAKES, CLOUDY    39  39 100 CALM      30.09S
MEXICO CITY, M CLEAR     55  52  88 CALM      30.40S
PHOENIX, AZ    CLEAR     67  39  35 SW7       29.92S
PORTLAND, OR   CLOUDY    56  49  77 N3        30.12S
RENO, NV       CLOUDY    52  48  86 CALM      30.03S
SALT LAKE CITY LGT RAIN  53  47  79 E6        29.92R
SAN DIEGO, CA  LGT RAIN  62  55  77 CALM      30.09F
SAN FRANCISCO, CLOUDY    56  50  80 W9        30.07F
SAN JOSE, CA   CLOUDY    57  48  72 W7        30.08F
SEATTLE, WA    CLOUDY    54  48  80 S7        30.10S
TIJUANA, MEX   MOCLDY    57  52  82 CALM      30.10F

$$

STATION/POSITION TIME  TEMP    WIND        PRES    VSBY  WAVE
                       AIR SEA DIR/SP/G                  HT/PER
                 (UTC) (F)     (DEG/KT/KT) (MB)    (MI)  (FT/S)
POINT ARGUELLO B NOT AVBL
WEST SANTA BARBA 0850   57 58  330/ 17/ 19 1017.7F         3/11
POINT CONCEPTION NOT AVBL
EAST SANTA BARBA 0800   58 58  290/  6/ 10 1018.0F
SANTA MONICA BAY 0850   60 63  360/  6/  6 1017.8S         4/ 5



USA.gov is the U.S. government's official web portal to all federal, state and local government web resources and services.